User: anonymous
Location: Caltech
(34.1382°N, 118.1253°W)
Time: 00:29:22
(UTC-07:00)
Language:

Iridium 68 - Orbit

View from above orbital plane
View from above orbital plane
View from above satellite
View from above satellite

Ground track
Ground track

The orbit data is extracted from the following two-line orbital elements,

1 25291U 98021G   14234.25913506  .00000218  00000-0  70742-4 0  9001
2 25291 086.3954 294.5029 0002380 112.1434 248.0015 14.34218080857377
Epoch (UTC): 22 August 2014 06:13:09
Eccentricity: 0.0002380
inclination: 86.3954°
perigee height: 776 km
apogee height: 779 km
right ascension of ascending node: 294.5029°
argument of perigee: 112.1434°
revolutions per day: 14.34218080
mean anomaly at epoch: 248.0015°
orbit number at epoch: 85737

The dashed part of the orbit path shows where the satellite is in the earth's shadow,  

DLR